www.pogodaiklimat.ru

Погода и климат >> Архив погоды >> Норвегия >> Маяк Krakenes


ПОГОДА на Маяке Krakenes

  • Прогноз погоды на Маяке Krakenes
  • Монитор погоды на Маяке Krakenes

АРХИВ ПОГОДЫ на Маяке Krakenes

Время (UTC), дата Ветер
(напр.,м/с)
 
Видим.   Явления Облачность Т
(С)
Тd
(С)
f
(%)
Тe
(С)
Тes
(С)
Комфортность P
(гПа)
Po
(гПа)
Тmin
(С)
Tmax
(С)
R
(мм)
R24
(мм)
S
(см)
10 16.07 С 8
{11}
н/о н/о +12.5 +10.9 90 +9 +9 1015.9 1011.1
11 16.07 СВ 8
{12}
н/о н/о +12.6 +11.2 91 +9 +9 1015.7 1010.9
12 16.07 С 9
{12}
н/о н/о +12.6 +11.2 91 +9 +9 1015.4 1010.6
13 16.07 С 8
{12}
н/о н/о +12.9 +11.3 90 +10 +10 1015.1 1010.3
14 16.07 С 8
{12}
н/о н/о +12.8 +11.0 89 +10 +10 1014.6 1009.8
15 16.07 С 10
{12}
н/о н/о +13.0 +11.2 89 +10 +10 1014.3 1009.5
16 16.07 С 9
{12}
н/о н/о +12.9 +12.0 94 +10 +10 1014.3 1009.5
17 16.07 С 7
{11}
н/о н/о +13.0 +11.9 93 +10 +10 1014.1 1009.3
18 16.07 С 8
{12}
н/о н/о +12.6 +11.8 95 +9 +9 1014.0 1009.2 +11.8 +13.2
19 16.07 СВ 8
{11}
н/о н/о +12.3 +12.2 99 +9 +9 1013.8 1009.0
20 16.07 СВ 8
{11}
н/о н/о +12.1 +12.0 99 +9 +9 1013.8 1009.0
21 16.07 В 5
{9}
н/о н/о +12.8 +11.5 92 +11 +11 1013.7 1008.9
22 16.07 С 4
{8}
н/о н/о +11.7 +11.6 99 +9 +9 1013.8 1009.0
23 16.07 В 3
{4}
н/о н/о +11.6 +11.5 99 +10 +10 1013.3 1008.5
00 17.07 В 3
{11}
н/о н/о +12.8 +11.4 91 +11 +11 1013.4 1008.6
01 17.07 С 3
{4}
н/о н/о +11.6 +11.5 99 +10 +10 1013.5 1008.7
02 17.07 С 1
{3}
н/о н/о +11.5 +11.4 99 +11 +11 1013.5 1008.7
03 17.07 В 1
{2}
н/о н/о +11.4 +11.3 99 +11 +11 1013.0 1008.2
04 17.07 ЮЗ 1
{2}
н/о н/о +12.0 +11.9 99 +12 +12 1013.0 1008.2
05 17.07 В 1
{2}
н/о н/о +12.3 +12.2 99 +12 +12 1012.8 1008.0
06 17.07 ЮЗ 4
{4}
н/о н/о +11.4 +11.3 99 +9 +9 1012.9 1008.1 +11.3 +13.1
07 17.07 ЮЗ 4
{5}
н/о н/о +11.8 +11.7 99 +9 +9 1012.8 1008.0
08 17.07 З 2
{5}
н/о н/о +11.7 +11.6 99 +10 +10 1012.8 1008.0
09 17.07 С 2
{3}
н/о н/о +12.9 +12.8 99 +12 +12 1012.8 1008.0
10 17.07 СВ 3
{5}
н/о н/о +12.2 +12.1 99 +10 +10 1012.6 1007.8
11 17.07 СЗ 1
{4}
н/о н/о +13.4 +13.3 99 +13 +13 1012.6 1007.8
12 17.07 ЮЗ 2
{5}
н/о н/о +12.8 +12.7 99 +12 +12 1012.4 1007.6
13 17.07 ЮЗ 5
{6}
н/о н/о +12.2 +12.1 99 +10 +10 1012.1 1007.3
14 17.07 ЮЗ 6
{7}
н/о н/о +12.6 +12.5 99 +10 +10 1011.8 1007.0
15 17.07 ЮЗ 7
{8}
н/о н/о +12.5 +12.4 99 +9 +9 1011.7 1006.9
16 17.07 ЮЗ 5
{8}
н/о н/о +12.8 +12.6 99 +10 +10 1011.4 1006.6
17 17.07 ЮЗ 2
{5}
н/о н/о +13.6 +13.4 99 +13 +13 1011.1 1006.3
18 17.07 С 1
{8}
н/о н/о +13.3 +13.1 99 +13 +13 1010.9 1006.1 +11.3 +13.8
19 17.07 штиль 0
{3}
н/о н/о +13.8 +13.2 96 +13 +13 1010.6 1005.8
20 17.07 СВ 1
{2}
н/о н/о +12.7 +12.5 99 +13 +13 1010.3 1005.5
21 17.07 З 1
{2}
н/о н/о +12.9 +12.7 99 +13 +13 1010.1 1005.3
22 17.07 СВ 2
{3}
н/о н/о +12.7 +12.6 99 +12 +12 1009.7 1004.9
23 17.07 ЮВ 2
{4}
н/о н/о +14.2 +10.0 76 +14 +14 1009.4 1004.7
00 18.07 В 2
{4}
н/о н/о +13.8 +13.3 97 +13 +13 1009.2 1004.4
01 18.07 З 1
{5}
н/о н/о +14.6 +10.6 77 +15 +15 1008.9 1004.2
02 18.07 ЮВ 2
{3}
н/о н/о +14.4 +10.4 77 +14 +14 1008.6 1003.9
03 18.07 ЮЗ 4
{5}
н/о н/о +12.8 +12.7 99 +11 +11 1008.3 1003.5
04 18.07 Ю 3
{5}
н/о н/о +11.7 +11.5 99 +10 +10 1007.9 1003.1
05 18.07 ЮЗ 2
{3}
н/о н/о +11.7 +11.6 99 +10 +10 1007.7 1002.9
06 18.07 ЮЗ 3
{5}
н/о н/о +11.9 +11.8 99 +10 +10 1007.6 1002.8 +11.6 +15.9
07 18.07 Ю 2
{5}
н/о н/о +12.0 +11.9 99 +11 +11 1007.3 1002.5
08 18.07 В 3
{4}
н/о н/о +12.7 +12.6 99 +11 +11 1007.3 1002.5
09 18.07 СВ 2
{5}
н/о н/о +13.8 +13.7 99 +13 +13 1007.1 1002.4
10 18.07 ЮЗ 3
{4}
н/о н/о +12.8 +12.7 99 +11 +11 1007.4 1002.6
11 18.07 СВ 1
{4}
н/о н/о +14.2 +14.1 99 +14 +14 1007.2 1002.5
12 18.07 В 3
{5}
н/о н/о +12.7 +12.6 99 +11 +11 1007.2 1002.4
13 18.07 В 4
{6}
н/о н/о +12.7 +12.6 99 +11 +11 1007.1 1002.3
14 18.07 В 3
{4}
н/о н/о +13.3 +13.2 99 +12 +12 1007.0 1002.2
15 18.07 ЮЗ 2
{4}
н/о н/о +15.0 +14.8 99 +15 +15 1007.1 1002.4
16 18.07 ЮВ 2
{6}
н/о н/о +15.5 +14.9 96 +15 +15 1006.9 1002.2
17 18.07 В 4
{8}
н/о н/о +16.0 +15.4 96 +15 +15 1006.4 1001.7
18 18.07 В 3
{8}
н/о н/о +17.4 +12.3 72 +17 +17 1006.2 1001.5 +11.7 +17.4
19 18.07 ЮВ 2
{5}
н/о н/о +16.3 +15.3 94 +16 +16 1006.3 1001.6
20 18.07 ЮВ 5
{8}
н/о н/о +17.0 +11.5 70 +16 +16 1006.2 1001.5
21 18.07 Ю 6
{13}
н/о н/о +17.8 +10.4 62 +17 +17 1006.1 1001.4
22 18.07 ЮВ 5
{11}
н/о н/о +17.7 +10.8 64 +17 +17 1006.0 1001.3
23 18.07 СВ 3
{7}
н/о н/о +15.6 +14.1 91 +15 +15 1005.8 1001.1
00 19.07 С 2
{13}
н/о н/о +15.0 +14.7 98 +15 +15 1005.8 1001.1
01 19.07 С 2
{5}
н/о н/о +14.7 +14.5 99 +14 +14 1005.8 1001.1
02 19.07 Ю 2
{5}
н/о н/о +13.8 +13.7 99 +13 +13 1005.9 1001.2
03 19.07 Ю 7
{11}
н/о н/о +12.9 +12.8 99 +10 +10 1006.4 1001.6
04 19.07 Ю 10
{14}
н/о н/о +14.4 +12.8 90 +12 +12 1006.0 1001.3
05 19.07 Ю 10
{14}
н/о н/о +14.1 +14.0 99 +11 +11 1006.3 1001.6
06 19.07 ЮЗ 9
{14}
н/о н/о +12.4 +12.3 99 +9 +9 1007.3 1002.5 +12.2 +18.0
07 19.07 Ю 13
{15}
н/о н/о +12.4 +12.3 99 +8 +8 1007.2 1002.4
08 19.07 Ю 9
{17}
н/о н/о +13.0 +12.9 99 +10 +10 1008.1 1003.3
09 19.07 ЮЗ 10
{11}
н/о н/о +12.8 +12.7 99 +9 +9 1008.4 1003.6
10 19.07 ЮЗ 11
{12}
н/о н/о +13.1 +13.0 99 +10 +10 1008.5 1003.7
11 19.07 Ю 7
{13}
н/о н/о +13.0 +12.9 99 +10 +10 1009.0 1004.2
12 19.07 Ю 9
{17}
н/о н/о +13.4 +13.3 99 +10 +10 1009.0 1004.2
13 19.07 ЮЗ 10
{15}
н/о н/о +13.1 +13.0 99 +10 +10 1008.9 1004.1
14 19.07 Ю 9
{15}
н/о н/о +13.1 +13.0 99 +10 +10 1009.6 1004.8
15 19.07 Ю 10
{12}
н/о н/о +13.6 +13.5 99 +10 +10 1009.6 1004.8
17 19.07 Ю 7
{13}
н/о н/о +12.9 +12.8 99 +10 +10 1009.8 1005.0
18 19.07 ЮЗ 7
{15}
н/о н/о +13.0 +12.9 99 +10 +10 1010.0 1005.2 +12.3 +14.1
19 19.07 ЮЗ 6
{8}
н/о н/о +12.6 +12.5 99 +10 +10 1010.4 1005.6
20 19.07 ЮЗ 6
{8}
н/о н/о +12.2 +12.1 99 +9 +9 1010.8 1006.0
21 19.07 ЮЗ 6
{7}
н/о н/о +12.4 +12.3 99 +10 +10 1011.1 1006.3
22 19.07 СВ 1
{6}
н/о н/о +12.1 +12.0 99 +12 +12 1011.4 1006.6
23 19.07 СВ 1
{2}
н/о н/о +11.9 +11.8 99 +12 +12 1011.4 1006.6
00 20.07 В 4
{8}
н/о н/о +12.3 +12.2 99 +10 +10 1011.2 1006.4
01 20.07 В 3
{4}
н/о н/о +12.0 +11.9 99 +10 +10 1011.2 1006.4
02 20.07 В 4
{6}
н/о н/о +13.2 +13.1 99 +11 +11 1010.8 1006.0
03 20.07 В 2
{5}
н/о н/о +13.1 +13.0 99 +12 +12 1010.7 1005.9
04 20.07 В 4
{5}
н/о н/о +13.3 +13.2 99 +11 +11 1010.2 1005.4
05 20.07 В 3
{5}
н/о н/о +15.3 +11.9 80 +15 +15 1010.1 1005.4
06 20.07 В 4
{6}
н/о н/о +15.2 +11.4 78 +14 +14 1009.7 1005.0 +11.9 +15.4
07 20.07 Ю 1
{4}
н/о н/о +14.6 +14.0 96 +15 +15 1009.7 1005.0
08 20.07 В 1
{3}
н/о н/о +14.6 +13.7 94 +15 +15 1009.6 1004.9
09 20.07 СВ 2
{3}
н/о н/о +16.8 +9.7 63 +17 +17 1009.1 1004.4
10 20.07 С 2
{3}
н/о н/о +17.8 +9.4 58 +18 +18 1008.6 1003.9
11 20.07 СВ 3
{4}
н/о н/о +15.6 +15.4 99 +15 +15 1008.1 1003.4
12 20.07 СВ 3
{6}
н/о н/о +16.1 +15.5 96 +16 +16 1007.8 1003.1
13 20.07 В 2
{3}
н/о н/о +17.8 +10.4 62 +18 +18 1007.4 1002.7
14 20.07 Ю 4
{5}
н/о н/о +16.4 +15.4 94 +16 +16 1007.5 1002.8
15 20.07 Ю 4
{7}
н/о н/о +14.2 +14.1 99 +13 +13 1007.7 1003.0
16 20.07 Ю 3
{5}
н/о н/о +14.1 +14.0 99 +13 +13 1007.3 1002.6
17 20.07 Ю 2
{3}
н/о н/о +14.2 +14.1 99 +14 +14 1007.1 1002.4
18 20.07 В 2
{7}
н/о н/о +14.3 +14.1 99 +14 +14 1006.9 1002.2 +13.9 +18.6
19 20.07 В 4
{4}
н/о н/о +13.4 +13.3 99 +12 +12 1006.6 1001.9
20 20.07 В 4
{5}
н/о н/о +13.4 +13.3 99 +12 +12 1006.6 1001.9
21 20.07 СВ 3
{5}
н/о н/о +13.5 +13.4 99 +12 +12 1006.5 1001.8
22 20.07 В 3
{4}
н/о н/о +13.9 +13.8 99 +13 +13 1006.6 1001.9
23 20.07 В 3
{4}
н/о н/о +13.8 +13.7 99 +13 +13 1006.4 1001.7
00 21.07 СВ 4
{5}
н/о н/о +13.8 +13.7 99 +12 +12 1006.1 1001.4
01 21.07 СВ 2
{4}
н/о н/о +14.3 +14.1 99 +14 +14 1006.2 1001.5
02 21.07 В 1
{3}
н/о н/о +14.3 +14.1 99 +15 +15 1006.2 1001.5
03 21.07 В 2
{3}
н/о н/о +14.0 +13.9 99 +13 +13 1006.1 1001.4
04 21.07 В 3
{5}
н/о н/о +13.9 +13.8 99 +13 +13 1006.2 1001.5
05 21.07 В 1
{4}
н/о н/о +14.0 +13.9 99 +14 +14 1006.3 1001.6
06 21.07 В 1
{5}
н/о н/о +14.2 +14.1 99 +14 +14 1006.3 1001.6 +13.3 +14.5
07 21.07 С 2
{4}
н/о н/о +14.3 +14.1 99 +14 +14 1006.5 1001.8
08 21.07 Ю 8
{10}
н/о н/о +13.8 +13.7 99 +11 +11 1006.6 1001.9
09 21.07 Ю 8
{13}
н/о н/о +13.7 +13.6 99 +11 +11 1006.9 1002.2
10 21.07 Ю 8
{12}
н/о н/о +13.6 +13.5 99 +11 +11 1007.5 1002.8
11 21.07 ЮЗ 10
{12}
н/о н/о +13.5 +13.4 99 +10 +10 1007.8 1003.0
12 21.07 Ю 12
{14}
н/о н/о +13.4 +13.3 99 +10 +10 1008.1 1003.3
13 21.07 ЮЗ 11
{14}
н/о н/о +12.9 +12.8 99 +9 +9 1009.1 1004.3
14 21.07 ЮЗ 9
{11}
н/о н/о +12.2 +12.1 99 +9 +9 1010.4 1005.6
15 21.07 ЮЗ 11
{12}
н/о н/о +12.3 +12.2 99 +8 +8 1010.8 1006.0
16 21.07 ЮЗ 10
{13}
н/о н/о +12.5 +12.4 99 +9 +9 1011.4 1006.6
17 21.07 Ю 12
{13}
н/о н/о +12.8 +12.7 99 +9 +9 1012.4 1007.6
18 21.07 Ю 10
{14}
н/о н/о +13.1 +13.0 99 +10 +10 1013.2 1008.4 +12.1 +14.4
19 21.07 Ю 9
{11}
н/о н/о +13.4 +12.8 96 +10 +10 1013.4 1008.6
20 21.07 Ю 10
{13}
н/о н/о +13.3 +13.2 99 +10 +10 1013.5 1008.7
21 21.07 Ю 11
{13}
н/о н/о +13.1 +13.0 99 +10 +10 1013.8 1009.0
22 21.07 Ю 10
{13}
н/о н/о +13.2 +13.1 99 +10 +10 1014.2 1009.4
23 21.07 Ю 8
{11}
н/о н/о +13.7 +12.1 90 +11 +11 1014.3 1009.5
00 22.07 Ю 8
{13}
н/о н/о +13.7 +11.8 88 +11 +11 1014.2 1009.4
01 22.07 Ю 6
{11}
н/о н/о +14.1 +9.5 74 +12 +12 1013.7 1008.9
02 22.07 Ю 7
{11}
н/о н/о +14.4 +9.0 70 +12 +12 1013.3 1008.5
03 22.07 В 4
{10}
н/о н/о +13.9 +9.9 77 +12 +12 1013.0 1008.2
04 22.07 ЮВ 4
{10}
н/о н/о +14.3 +9.5 73 +13 +13 1012.5 1007.7
05 22.07 ЮВ 4
{8}
н/о н/о +14.3 +9.7 74 +13 +13 1012.2 1007.4
06 22.07 В 5
{11}
н/о н/о +14.1 +10.7 80 +12 +12 1011.7 1006.9 +13.0 +14.8
07 22.07 ЮВ 3
{8}
н/о н/о +16.1 +9.1 63 +16 +16 1011.4 1006.7
08 22.07 ЮВ 4
{8}
н/о н/о +16.2 +7.9 58 +16 +16 1011.0 1006.3
09 22.07 ЮВ 2
{7}
н/о н/о +16.5 +9.5 63 +17 +17 1011.0 1006.3
10 22.07 Ю 5
{10}
н/о н/о +17.2 +9.6 61 +17 +17 1010.6 1005.9
11 22.07 Ю 6
{12}
н/о н/о +17.0 +10.8 67 +16 +16 1010.4 1005.7
12 22.07 Ю 9
{15}
н/о н/о +17.1 +11.6 70 +16 +16 1009.9 1005.2
13 22.07 Ю 6
{13}
н/о н/о +16.5 +12.9 79 +15 +15 1009.7 1005.0
14 22.07 Ю 6
{10}
н/о н/о +16.9 +12.7 76 +16 +16 1009.4 1004.7
15 22.07 ЮЗ 4
{7}
н/о н/о +16.3 +13.2 82 +16 +16 1009.2 1004.5
16 22.07 ЮЗ 1
{3}
н/о н/о +16.1 +15.1 94 +17 +17 1009.0 1004.3
17 22.07 штиль 0
{1}
н/о н/о +15.3 +15.1 99 +15 +15 1009.1 1004.4
18 22.07 СВ 3
{13}
н/о н/о +13.6 +13.5 99 +12 +12 1009.1 1004.3 +13.6 +17.6
19 22.07 СВ 2
{4}
н/о н/о +13.4 +13.3 99 +13 +13 1008.8 1004.0
20 22.07 В 3
{4}
н/о н/о +13.2 +13.1 99 +12 +12 1009.0 1004.2
21 22.07 ЮВ 1
{5}
н/о н/о +14.2 +14.1 99 +14 +14 1009.5 1004.7
22 22.07 Ю 3
{5}
н/о н/о +14.2 +14.1 99 +13 +13 1010.1 1005.3
23 22.07 Ю 14
{15}
н/о н/о +13.8 +13.7 99 +10 +10 1009.8 1005.0
00 23.07 Ю 16
{17}
н/о н/о +13.3 +13.2 99 +9 +9 1010.8 1006.0
01 23.07 Ю 13
{17}
н/о н/о +13.2 +13.1 99 +9 +9 1011.4 1006.6
02 23.07 Ю 12
{14}
н/о н/о +13.2 +13.1 99 +10 +10 1012.3 1007.5
03 23.07 Ю 12
{14}
н/о н/о +13.2 +13.1 99 +10 +10 1012.8 1008.0
04 23.07 Ю 10
{13}
н/о н/о +13.2 +13.1 99 +10 +10 1013.2 1008.4
05 23.07 Ю 9
{12}
н/о н/о +13.2 +13.1 99 +10 +10 1013.7 1008.9
06 23.07 Ю 8
{17}
н/о н/о +13.9 +13.8 99 +11 +11 1014.1 1009.3 +13.1 +14.5
07 23.07 Ю 7
{10}
н/о н/о +14.1 +14.0 99 +12 +12 1014.7 1009.9
08 23.07 Ю 7
{10}
н/о н/о +15.9 +14.1 89 +14 +14 1014.5 1009.8

 

Местоположение метеостанции Маяк Krakenes (Норвегия): широта 62.03 долгота 4.99 высота над уровнем моря 75 м.

В архиве по умолчанию представлена погода на Маяке Krakenes за последнюю неделю. Архивные данные за месяц целиком и за предыдущие месяцы, начиная с января 2011 года, Вы можете получить, выбрав интересующий диапазон дат из раскрывающегося списка и нажав кнопку "Ввод!".


*Определитесь, кто Вы:
робот инопланетянин человек

Внимание! Время в таблицах - всемирное. Для получения местного времени необходимо прибавить поправку, которая равна 1 ч.

Смотрите также архив погоды в соседних городах и на ближайших метеорологических станциях:

Погода в Берген аэропорту (Норвегия) (31 км)
Погода в Фиске (Норвегия) (32 км)
Погода на Маяке Svinoy (Норвегия) (36 км)
Погода в Флоро аэропорту (Норвегия) (50 км)
Погода на Маяке Ytteroyane (Норвегия) (54 км)
Погода в Аэропорту Орста-Волда (Норвегия) (59 км)
Погода в Сандан аэропорту (Норвегия) (62 км)
Погода во Флурё (Норвегия) (79 км)
Погода в Олесунне (Норвегия) (80 км)
Погода во Флурё аэропорту (Норвегия) (82 км)

Пояснения к столбцам:

Ветер - указаны скорость ветра в м/с - средняя за 10 мин, порывы в срок и между сроками (в фигурных скобках) и направление, откуда дует ветер: С - северный, СВ - северо-восточный, В - восточный, ЮВ - юго-восточный, Ю - южный, ЮЗ - юго-западный, З - западный, СЗ - северо-западный.
Видимость - горизонтальная дальность видимости в метрах или километрах. При видимости от 1 до 10 км при отсутствии осадков обычно наблюдается дымка, при ухудшении видимости до 1 км и менее - туман. В сухую погоду видимость может ухудшаться дымом, пылью или мглою.
Явления - указаны атмосферные явления, наблюдавшиеся в срок или в последний час перед сроком; фигурными скобками обозначены явления, наблюдавшиеся между сроками (за 1-3 часа до срока); квадратными скобками обозначены град или гололедные отложения с указанием их диаметра в мм.
Облачность - указаны через наклонную черту общая и нижняя облачность в баллах и высота нижней границы облаков в метрах; квадратными скобками обозначены формы облаков: Ci - перистые, Cs - перисто-слоистые, Cc - перисто-кучевые, Ac - высококучевые, As - высокослоистые, Sc - слоисто-кучевые, Ns - слоисто-дождевые, Cu - кучевые, Cb - кучево-дождевые. Подробнее классификацию облаков см. в Атласе облаков (PDF).
T - Температура воздуха - температура, измеренная на высоте 2 м над землей.
Td - Температура точки росы - температура, при понижении до которой содержащийся в воздухе водяной пар достигнет насыщения.
f - Относительная влажность воздуха - влажноcть воздуха, измеренная на высоте 2 м над землей.
Te - Эффективная температура - температура, которую ощущает одетый по сезону человек в тени. Характеристика душности погоды. При расчете учитывается влияние влажности воздуха и скорости ветра на теплоощущения человека.
Tes - Эффективная температура на солнце - температура, которую ощущает человек, с поправкой на солнечный нагрев. Характеристика знойности погоды. Зависит от высоты солнца над горизонтом, облачности и скорости ветра. Ночью, в пасмурную погоду, а также при ветре 12 м/с и более поправка равна нулю.
P - Атмосферное давление - приведенное к уровню моря атмосферное давление.
Po - Атмосферное давление - измеренное на уровне метеостанции атмосферное давление.
Tmin - Минимальная температура - минимум температуры воздуха на высоте 2 м над землей.
Tmax - Максимальная температура - максимум температуры воздуха на высоте 2 м над землей.
R - Количество осадков - Количество выпавших осадков за период времени, мм. При наведении курсора мыши на число - период времени, за который выпало указанное количество осадков.
R24 - Количество осадков - Количество выпавших осадков за 24 часа, мм.
S - Снежный покров - Высота снежного покрова, см. При наведении курсора мыши на число - состояние снежного покрова и степень покрытия местности в баллах.